User: anonymous   Login
Location: Caltech
(34.1382°N, 118.1253°W)
Time: 07:31:01
(UTC-07:00)
Language:

Cosmos 2084 - Orbit

View from above orbital plane
View from above orbital plane
View from above satellite
View from above satellite

Ground track
Ground track

The orbit data is extracted from the following two-line orbital elements,

1 20663U 90055A   15245.61934137 +.00000583 +00000-0 +73497-4 0  9997
2 20663 062.7928 248.0436 0090400 021.5316 338.9540 14.90649820362333
Epoch (UTC): 02 September 2015 14:51:51
Eccentricity: 0.0090400
inclination: 62.7928°
perigee height: 533 km
apogee height: 659 km
right ascension of ascending node: 248.0436°
argument of perigee: 21.5316°
revolutions per day: 14.90649820
mean anomaly at epoch: 338.9540°
orbit number at epoch: 36233

The dashed part of the orbit path shows where the satellite is in the earth's shadow,  

DLR